Weather History for KC29 - February, 2013

Change the Weather History Date:

Tuesday, February 26, 2013

  Actual Average (KMSN) Record (KMSN)
Temperature  
Mean Temperature 32 °F 27 °F  
Max Temperature 34 °F 35 °F 61 °F (2000)
Min Temperature 29 °F 19 °F -9 °F (1994)
Degree Days  
Heating Degree Days 34 38  
Month to date heating degree days 1097  
Since 1 July heating degree days 5410  
Cooling Degree Days 0 0  
Month to date cooling degree days 0  
Year to date cooling degree days 0  
Moisture  
Dew Point 27 °F    
Average Humidity 82    
Maximum Humidity 95    
Minimum Humidity 70    
Precipitation  
Precipitation 0.00 in 0.06 in 1.16 in (1881)
Month to date precipitation 1.33  
Year to date precipitation 2.56  
Snow  
Snow 0.00 in 0.40 in 11.50 in (1912)
Month to date snowfall 10.0  
Since 1 July snowfall 40.5  
Snow Depth -    
Sea Level Pressure  
Sea Level Pressure 29.77 in    
Wind  
Wind Speed 14 mph (NE)    
Max Wind Speed 32 mph    
Max Gust Speed 44 mph    
Visibility 7 miles    
Events      
T = Trace of Precipitation, MM = Missing Value Source: NWS Daily Summary

Daily Weather History Graph

Daily Weather History Graph

Search for Another Location

Airport or City:

Trip Planner

Search our weather history database for the weather conditions in past years. The results will help you decide how hot, cold, wet, or windy it might be!

Date:

Astronomy

Feb. 26, 2013 Rise Set
Actual Time 6:38 AM CST 5:43 PM CST
Civil Twilight 6:10 AM CST 6:12 PM CST
Nautical Twilight 5:37 AM CST 6:45 PM CST
Astronomical Twilight 5:04 AM CST 7:18 PM CST
Moon 7:04 PM CST (2/26) 6:38 AM CST (2/26)
Length of Visible Light 12h 02m
Length of Day
11h 05m
Full, 99% of the Moon is Illuminated
Feb 26
Full
Mar 4
Last Quarter
Mar 11
New
Mar 19
First Quarter
Mar 27
Full

Hourly Weather History & Observations

Time (CST) Temp. Windchill Dew Point Humidity Pressure Visibility Wind Dir Wind Speed Gust Speed Precip Events Conditions
12:15 AM 30.2 °F 22.6 °F 23.7 °F 77% 30.00 in 7.0 mi ENE 8.1 mph - N/A   Clear
12:35 AM 29.3 °F 22.3 °F 23.5 °F 79% 29.99 in 7.0 mi NE 6.9 mph - N/A   Clear
12:55 AM 29.7 °F 22.0 °F 23.9 °F 79% 29.98 in 7.0 mi NE 8.1 mph - N/A   Clear
1:15 AM 29.3 °F 22.3 °F 23.9 °F 80% 29.97 in 7.0 mi ENE 6.9 mph - N/A   Clear
1:35 AM 29.3 °F 24.3 °F 23.9 °F 80% 29.97 in 7.0 mi East 4.6 mph - N/A   Clear
1:55 AM 29.5 °F 25.9 °F 24.3 °F 81% 29.97 in 7.0 mi ENE 3.5 mph - N/A   Clear
2:15 AM 29.3 °F 22.3 °F 23.9 °F 80% 29.97 in 7.0 mi ENE 6.9 mph - N/A   Clear
2:35 AM 29.3 °F 22.3 °F 24.1 °F 81% 29.95 in 7.0 mi ENE 6.9 mph - N/A   Clear
2:55 AM 29.3 °F 21.5 °F 24.3 °F 81% 29.93 in 10.0 mi NE 8.1 mph - N/A   Clear
3:15 AM 29.8 °F 21.5 °F 24.4 °F 80% 29.92 in 10.0 mi ENE 9.2 mph - N/A   Clear
3:35 AM 30.2 °F 20.8 °F 24.6 °F 80% 29.90 in 10.0 mi ENE 11.5 mph - N/A   Clear
3:55 AM 30.7 °F 22.0 °F 25.0 °F 79% 29.89 in 10.0 mi NE 10.4 mph - N/A   Clear
4:15 AM 30.6 °F 21.2 °F 25.3 °F 81% 29.89 in 10.0 mi NE 11.5 mph - N/A   Clear
4:35 AM 30.9 °F 21.7 °F 25.5 °F 80% 29.89 in 10.0 mi NE 11.5 mph 18.4 mph N/A   Clear
4:55 AM 30.4 °F 21.5 °F 25.7 °F 83% 29.88 in 10.0 mi NE 10.4 mph - N/A   Clear
5:15 AM 30.7 °F 22.0 °F 25.9 °F 82% 29.88 in 10.0 mi ENE 10.4 mph - N/A   Clear
5:35 AM 30.9 °F 21.2 °F 25.9 °F 82% 29.88 in 10.0 mi ENE 12.7 mph - N/A   Clear
5:55 AM 30.9 °F 22.8 °F 26.1 °F 82% 29.87 in 10.0 mi NE 9.2 mph - N/A   Clear
6:15 AM 30.7 °F 19.6 °F 25.9 °F 82% 29.85 in 10.0 mi NE 16.1 mph - N/A   Clear
6:35 AM 30.9 °F 20.2 °F 26.2 °F 83% 29.84 in 10.0 mi NE 15.0 mph 20.7 mph N/A   Mostly Cloudy
6:55 AM 30.7 °F 20.9 °F 26.1 °F 83% 29.84 in 10.0 mi NE 12.7 mph 21.9 mph N/A   Overcast
7:15 AM 31.1 °F 21.4 °F 26.1 °F 82% 29.83 in 10.0 mi NE 12.7 mph - N/A   Overcast
7:35 AM 31.1 °F 20.9 °F 26.1 °F 82% 29.83 in 10.0 mi NE 13.8 mph 19.6 mph N/A   Mostly Cloudy
7:55 AM 31.5 °F 20.5 °F 26.1 °F 80% 29.83 in 10.0 mi ENE 16.1 mph 20.7 mph N/A   Mostly Cloudy
8:15 AM 32.0 °F 21.2 °F 26.4 °F 80% 29.84 in 10.0 mi ENE 16.1 mph - N/A   Scattered Clouds
8:35 AM 32.0 °F 22.1 °F 26.4 °F 80% 29.84 in 10.0 mi ENE 13.8 mph - N/A   Clear
8:55 AM 32.0 °F 22.5 °F 26.6 °F 80% 29.82 in 10.0 mi NE 12.7 mph - N/A   Clear
9:15 AM 32.5 °F 23.2 °F 27.0 °F 80% 29.81 in 10.0 mi NE 12.7 mph - N/A   Clear
9:35 AM 33.3 °F 22.8 °F 26.2 °F 75% 29.81 in 10.0 mi ENE 16.1 mph 20.7 mph N/A   Clear
9:55 AM 33.4 °F 23.1 °F 26.2 °F 75% 29.79 in 10.0 mi NE 16.1 mph 24.2 mph N/A   Scattered Clouds
10:15 AM 33.8 °F 22.5 °F 25.7 °F 72% 29.78 in 10.0 mi NE 19.6 mph 25.3 mph N/A   Scattered Clouds
10:35 AM 34.0 °F 24.2 °F 25.3 °F 71% 29.76 in 10.0 mi NE 15.0 mph 26.5 mph N/A   Clear
10:55 AM 33.8 °F 22.2 °F 25.7 °F 72% 29.76 in 10.0 mi NE 20.7 mph 27.6 mph N/A   Clear
11:15 AM 33.8 °F 22.5 °F 25.5 °F 72% 29.75 in 10.0 mi NE 19.6 mph 31.1 mph N/A   Clear
11:35 AM 34.2 °F 22.3 °F 25.9 °F 72% 29.75 in 10.0 mi NE 21.9 mph 31.1 mph N/A   Scattered Clouds
11:55 AM 34.3 °F 23.5 °F 25.3 °F 70% 29.75 in 10.0 mi NE 18.4 mph 27.6 mph N/A   Scattered Clouds
12:15 PM 34.2 °F 22.6 °F 26.4 °F 73% 29.73 in 10.0 mi NE 20.7 mph 33.4 mph N/A   Scattered Clouds
12:35 PM 34.0 °F 22.1 °F 25.9 °F 72% 29.73 in 10.0 mi NE 21.9 mph 29.9 mph N/A   Scattered Clouds
12:55 PM 33.8 °F 21.3 °F 25.5 °F 72% 29.72 in 10.0 mi NE 24.2 mph 34.5 mph N/A   Mostly Cloudy
1:15 PM 33.4 °F 21.1 °F 24.8 °F 71% 29.71 in 10.0 mi NE 23.0 mph 32.2 mph N/A   Mostly Cloudy
1:35 PM 33.4 °F 20.6 °F 25.0 °F 71% 29.70 in 10.0 mi NE 25.3 mph 32.2 mph N/A   Overcast
1:55 PM 33.3 °F 20.9 °F 25.2 °F 72% 29.70 in 10.0 mi NE 23.0 mph 28.8 mph N/A   Overcast
2:15 PM 33.3 °F 20.3 °F 25.2 °F 72% 29.69 in 10.0 mi NNE 25.3 mph 34.5 mph N/A   Overcast
2:35 PM 33.3 °F 20.9 °F 25.7 °F 74% 29.69 in 10.0 mi NNE 23.0 mph 35.7 mph N/A   Mostly Cloudy
2:55 PM 32.9 °F 20.1 °F 25.7 °F 75% 29.69 in 10.0 mi NE 24.2 mph 38.0 mph N/A   Overcast
3:15 PM 32.9 °F 20.7 °F 25.5 °F 74% 29.69 in 10.0 mi NE 21.9 mph 38.0 mph N/A   Overcast
3:35 PM 32.9 °F 18.6 °F 25.3 °F 74% 29.68 in 10.0 mi NE 31.1 mph 40.3 mph N/A   Overcast
3:55 PM 32.9 °F 18.9 °F 25.7 °F 75% 29.67 in 10.0 mi NE 29.9 mph 39.1 mph N/A   Overcast
4:15 PM 33.1 °F 20.6 °F 26.1 °F 75% 29.67 in 10.0 mi NNE 23.0 mph 36.8 mph N/A   Overcast
4:35 PM 32.9 °F 19.1 °F 26.6 °F 78% 29.67 in 10.0 mi NNE 28.8 mph 36.8 mph N/A   Overcast
4:55 PM 32.9 °F 19.3 °F 26.6 °F 78% 29.67 in 10.0 mi NNE 27.6 mph 36.8 mph N/A   Overcast
5:15 PM 32.9 °F 18.4 °F 27.1 °F 79% 29.66 in 10.0 mi NNE 32.2 mph 41.4 mph N/A   Overcast
5:35 PM 32.9 °F 18.9 °F 27.3 °F 80% 29.67 in 5.0 mi NNE 29.9 mph 43.7 mph N/A   Overcast
5:55 PM 32.0 °F 17.9 °F 28.4 °F 87% 29.67 in 1.2 mi NNE 28.8 mph 39.1 mph N/A   Overcast
6:15 PM 32.0 °F 17.6 °F 30.2 °F 93% 29.67 in 1.0 mi NNE 29.9 mph 36.8 mph N/A   Overcast
6:35 PM 32.0 °F 18.1 °F 30.6 °F 94% 29.68 in 1.2 mi NE 27.6 mph 36.8 mph N/A   Overcast
6:55 PM 32.0 °F 18.6 °F 30.6 °F 94% 29.69 in 1.0 mi NNE 25.3 mph 33.4 mph N/A   Overcast
7:15 PM 31.8 °F 19.0 °F 30.2 °F 94% 29.68 in 1.0 mi NNE 23.0 mph 31.1 mph N/A   Overcast
7:35 PM 31.8 °F 19.3 °F 30.2 °F 94% 29.68 in 1.5 mi NNE 21.9 mph 29.9 mph N/A   Overcast
7:55 PM 31.6 °F 18.4 °F 30.0 °F 94% 29.68 in 2.0 mi NNE 24.2 mph 29.9 mph N/A   Overcast
8:15 PM 31.6 °F 18.7 °F 30.0 °F 94% 29.68 in 2.0 mi NNE 23.0 mph 27.6 mph N/A   Overcast
8:35 PM 31.6 °F 18.4 °F 30.0 °F 94% 29.67 in 1.5 mi NNE 24.2 mph 29.9 mph N/A   Overcast
8:55 PM 31.5 °F 19.1 °F 30.0 °F 94% 29.68 in 1.2 mi NNE 20.7 mph 28.8 mph N/A   Overcast
9:15 PM 31.1 °F 18.6 °F 29.8 °F 95% 29.67 in 1.0 mi NNE 20.7 mph 26.5 mph N/A   Overcast
9:35 PM 31.1 °F 18.9 °F 29.5 °F 94% 29.66 in 1.0 mi NNE 19.6 mph 28.8 mph N/A   Overcast
9:55 PM 30.9 °F 18.1 °F 29.3 °F 94% 29.65 in 1.0 mi NNE 21.9 mph - N/A   Overcast
10:15 PM 30.7 °F 18.1 °F 29.1 °F 94% 29.65 in 1.2 mi NNE 20.7 mph 27.6 mph N/A   Overcast
10:35 PM 30.6 °F 17.9 °F 28.9 °F 94% 29.65 in 1.0 mi NNE 20.7 mph - N/A   Overcast
10:55 PM 30.6 °F 18.2 °F 28.8 °F 93% 29.65 in 1.5 mi NNE 19.6 mph 25.3 mph N/A   Overcast
11:15 PM 30.6 °F 17.9 °F 28.6 °F 92% 29.64 in 2.0 mi NNE 20.7 mph 25.3 mph N/A   Overcast
11:35 PM 30.4 °F 18.7 °F 28.4 °F 92% 29.65 in 1.5 mi NNE 17.3 mph 24.2 mph N/A   Overcast
11:55 PM 30.2 °F 18.1 °F 28.4 °F 93% 29.64 in 1.2 mi NNE 18.4 mph 25.3 mph N/A   Overcast